Flag for Germany Weather past 2 weeks in Warstein, North Rhine-Westphalia, Germany

37 °F


Feels Like: 34 °F
Forecast: 32 / 39 °F
Wind: 5 mph from West

Location: Paderborn / Lippstadt

Current Time: Nov 26, 2015 at 11:44:48 AM

Latest Report: Nov 26, 2015 at 10:50 AM

Visibility: 3 mi

Pressure: 29.98 "Hg

Humidity: 93%

Dew point: 36 °F

Location of WarsteinLocation

Historic Weather in Warstein — Graph


Warstein temperature yesterday

Maximum temperature yesterday: 41 °F (at 12:50 PM)
Minimum temperature yesterday: 34 °F (at 12:20 AM)
Average temperature yesterday: 37 °F

Past Weeks' High & Low Weather Summary

High57 °F (Nov 17, 1:20 PM)100% (Nov 15, 3:20 PM)30.30 "Hg (Nov 15, 3:20 PM)
Low30 °F (Nov 22, 9:50 PM)56% (Nov 24, 10:50 AM)29.36 "Hg (Nov 21, 5:20 AM)
Average44 °F82%29.89 "Hg
* Reported Nov 11 10:20 AM — Nov 26 10:50 AM, Warstein, Weather by CustomWeather, © 2015

Note: Actual official high and low records may vary slightly from our data, if they occured in-between our weather recording intervals... More about our weather records


Warstein weather history for previous 24 hours

Time TempWeatherWind HumidityBarometerVisibility
10:50 AM
Thu, Nov 26
37 °FFog.5 mph93%29.98 "Hg3 mi
10:20 AM37 °FFog.5 mph100%29.98 "Hg2 mi
9:50 AM37 °FFog.3 mph93%29.95 "Hg2 mi
9:20 AM36 °FLight rain. Fog.5 mph100%29.95 "Hg2 mi
8:50 AM36 °FFog.6 mph100%29.95 "Hg1 mi
8:20 AM36 °FFog.6 mph100%29.92 "Hg1 mi
7:50 AM36 °FFog.6 mph100%29.89 "Hg1 mi
7:20 AM36 °FFog.5 mph100%29.89 "Hg1 mi
6:50 AM36 °FFog.6 mph100%29.86 "Hg1 mi
6:20 AM36 °FDrizzle. Fog.5 mph100%29.86 "Hg1 mi
5:50 AM36 °FDrizzle. Fog.6 mph100%29.83 "Hg1 mi
5:20 AM37 °FDrizzle. Fog.5 mph93%29.83 "Hg2 mi
4:50 AM37 °FDrizzle. Fog.6 mph93%29.83 "Hg2 mi
3:50 AM37 °FDrizzle. Fog.6 mph93%29.80 "Hg2 mi
3:20 AM37 °FPassing clouds.6 mph100%29.80 "Hg4 mi
2:50 AM37 °FPassing clouds.7 mph100%29.80 "Hg4 mi
2:20 AM37 °FPassing clouds.7 mph100%29.77 "Hg4 mi
1:50 AM37 °FPassing clouds.7 mph100%29.77 "Hg4 mi
1:20 AM37 °FFog.7 mph100%29.77 "Hg2 mi
12:50 AM37 °FDrizzle. Fog.7 mph100%29.77 "Hg2 mi
12:20 AM37 °FDrizzle. Fog.7 mph100%29.74 "Hg2 mi
11:50 PM
Wed, Nov 25
37 °FDrizzle. Fog.6 mph100%29.74 "Hg2 mi
11:20 PM37 °FDrizzle. Fog.8 mph100%29.74 "Hg2 mi
10:50 PM37 °FFog.8 mph100%29.74 "Hg2 mi
10:20 PM37 °FFog.7 mph100%29.74 "Hg2 mi
9:50 PM37 °FFog.7 mph100%29.71 "Hg2 mi
9:20 PM37 °FPassing clouds.3 mph100%29.71 "HgN/A
8:50 PM37 °FPassing clouds.3 mph100%29.71 "HgN/A
8:20 PM37 °FLight rain. Passing clouds.7 mph93%29.71 "HgN/A
7:50 PM39 °FLight rain. Partly cloudy.8 mph93%29.68 "Hg4 mi
7:20 PM39 °FPartly cloudy.7 mph93%29.68 "HgN/A
6:50 PM39 °FPartly cloudy.7 mph93%29.68 "HgN/A
6:20 PM39 °FPartly cloudy.6 mph93%29.65 "HgN/A
5:50 PM39 °FPartly cloudy.5 mph93%29.65 "HgN/A
5:20 PM39 °FPartly cloudy.6 mph93%29.65 "Hg5 mi
4:50 PM39 °FPartly cloudy.5 mph93%29.65 "Hg4 mi
4:20 PM39 °FBroken clouds.7 mph93%29.65 "Hg4 mi
3:50 PM39 °FSprinkles. Broken clouds.7 mph93%29.62 "HgN/A
3:20 PM39 °FSprinkles. Broken clouds.7 mph93%29.62 "HgN/A
2:50 PM39 °FSprinkles. Broken clouds.9 mph93%29.62 "Hg4 mi
2:20 PM41 °FBroken clouds.10 mph87%29.62 "HgN/A
1:50 PM41 °FBroken clouds.14 mph87%29.62 "HgN/A
1:20 PM41 °FPartly sunny.10 mph87%29.62 "HgN/A
12:50 PM41 °FPartly sunny.13 mph87%29.65 "HgN/A
12:20 PM39 °FPartly sunny.14 mph93%29.65 "HgN/A
11:50 AM39 °FPartly sunny.9 mph93%29.65 "HgN/A
11:20 AM39 °FPartly sunny.12 mph93%29.65 "HgN/A
Weather by CustomWeather, © 2015

See weather overviewHow to use our weather pages